Location: ????
(30.1475°N, 31.1342°E)
Time: 02:20:43
(UTC+00:00)

Gbstr 26 Del rocket - Pass Details

Date: 27 September 2022
Orbit: 491 x 1258 km, 51.8° (Epoch: 01 December)

Event Time Altitude Azimuth Distance (km) Brightness Sun altitude
Exits shadow 01:25:46 81° 115° (ESE) 998 3.9 -30.8°
Drops below altitude 10° 01:31:21 10° 136° (SE) 2,476 6.4 -29.7°
Sets 01:33:35 0° 137° (SE) 3,296 7.1 -29.2°
